Погода в Каунасе

Погода в Каунасе : погода сейчас, прогноз погоды и архив. Всё, что Вы хотите узнать о погоде в Каунасе!

Поиск расширенной информации на нашем сайте:

Другие новости

Новости СМИ2

Главная страница сайта

Новости сайта

02.10.2013

Напоминаем, что на нашем новом сайте вы можете получить высокодетализированные прогнозы погоды по пунктам России, СНГ и мира (включающие важные для авиации метеовеличины, такие как направление и скорость ветра, видимость, явления погоды, количество и форма облачности, нижняя и верхняя граница облачности), а также ознакомиться с разнообразными материалами по авиационной метеорологии и подборкой полезных ссылок на эту тему.

Сайт Метеоцентр.Азия посвящён разработке технологий оптимизации авиаметеорологического обслуживания, включая проектирование и перспективное создание нескольких автоматизированных авиаметеорологических систем:
- система выпуска высокодетальных прогностических карт явлений погоды для нижнего воздушного пространства по России и ближнему зарубежью;
- система верификации прогнозов TAF (выпускаемых синоптиками официальных АМСГ РФ и ближнего зарубежья) и AUTOTAF (выпускаемых сайтом Метеоцентр.Азия) - выявление ошибок, онлайн-сопоставление с фактической погодой METAR, автоматическое внесение коррективов в прогнозы при резком отклонении фактической погоды от прогноза, подсчёт оправдываемости прогнозов по элементам и в целом;
- система обработки, анализа и отображения авиаметеорологической информации для применения провайдерами метеорологической информации.

Рекомендуем: застройщик продает. квартиры в Новостройках от застройщика в Новосибирске. новостройки дешево

Погода в Каунасе - сегодня

Время (UTC), дата Ветер
(°,м/с) 
Видим.   Явления Облачность Т
(°С)
Тd
(°С)
f(%) Тe
(°С)
Pmin
(гПа)
dP
(гПа)
Po
(мм)
O2
(г/м3)
Тmin Tmax R s Состояние
почвы
12 25.05.17 320 (СЗ) 4-6{10}  20000 м    4/3 1000 м верхняя 
[Cu med, cong|Ci fib]
+19.8 +6.5 42 +20  1013.9  -0.9  754  282           
15 25.05.17 280 (З) 3-8{12}  20000 м  слаб. ливневой дождь, в посл. час гроза  10/6 540 м кучево-дожд., средняя 
[Cb cap|Ac cuf]
+15.5 +9.9 69 +17  1015.1  754  286           
18 25.05.17 290 (З) 4-6{10}  20000 м  {гроза, ливн. осадки}  1/1 1000 м 
[Sc diur, vesp]
+16.8 +8.4 58 +17  1014.5  -0.6  754  285    +21.3  0.7     
21 25.05.17 280 (З) 3-5{06}  20000 м    3/0 средняя, верхняя 
[Ac trans|Ci fib]
+11.5 +6.7 72 +11  1015.4  0.8  755  291           
00 26.05.17 260 (З) 3-5{06}  20000 м    9/0 средняя 
[Ac trans]
+9.3 +7 86 +9  1015.3  -0.2  754  293           
03 26.05.17 300 (СЗ) 2-4{06}  19000 м    10/10 270 м 
[Sc]
+9.5 +8.1 91 +10  1015.4  0.1  755  292           
06 26.05.17 330 (СЗ) 3-4{04}  18000 м  слаб. дождь  10/10 270 м 
[Frnb|Ns]
+10.4 +8.8 90 +10  1016.3  0.9  755  292  +9    0.0    влажная 
09 26.05.17 тихо () -2{05}  17000 м  {дождь}  9/6 240 м средняя 
[Sc|Ac As]
+12.1 +9.9 86 +13  1017  0.8  756  290           
12 26.05.17 тихо () -3{05}  20000 м  {дождь}  8/4 870 м средняя, верхняя 
[Cu Sc|Ac trans|Ci fib]
+15.5 +9.3 67 +16  1017  0.1  756  287         
18 26.05.17 010 (С) 1-2{06}  20000 м    9/5 600 м средняя, верхняя 
[Sc|Ac trans|Ci fib]
+15.3 +8 62 +17  1017.7  0.7  756  287    +16.8     
00 27.05.17 350 (С) 2-3{04}  20000 м    9/4 1470 м средняя, верхняя 
[Sc|Ac trans|Ci fib]
+9.2 +5.9 80 +9  1020.7  1.4  758  295           
03 27.05.17 300 (СЗ) 1-2{04}  20000 м    8/0 верхняя 
[Ci fib]
+7 +4.6 85 +8  1021.7  759  298           
06 27.05.17 340 (С) 3-4{06}  19000 м    4/0 верхняя 
[Ci fib]
+12.6 +6.8 68 +12  1022.8  1.2  760  292  +7        сухая 
18 27.05.17 240 (ЮЗ) 1-3{04}  20000 м    4/0 верхняя 
[Ci fib]
+17.5 +9 57 +19  1021.4  -0.9  759  286    +20.3       
03 28.05.17 260 (З) 3-5{06}  20000 м    8/0 верхняя 
[Ci fib]
+11.9 +8.2 78 +12  1021.1  -0.5  759  292           
06 28.05.17 290 (З) 4-7{08}  20000 м    8/0 верхняя 
[Ci fib]
+17.5 +9.5 59 +18  1020.8  -0.1  759  286  +10.8        сухая 
18 28.05.17 250 (З) 3-4{10}  20000 м    6/0 верхняя 
[Ci fib]
+22.9 +10.4 45 +24  1016.1  -1.6  755  279    +26.1       
03 29.05.17 230 (ЮЗ) 5-8{09}  20000 м    10/0 средняя 
[Ac As]
+17.8 +9.9 60 +19  1009.9  -2.6  751  282           
06 29.05.17 250 (З) 5-7{08}  19000 м  {ливн. осадки, дождь}  3/1 1000 м средняя, верхняя 
[Cu hum|Ac trans|Ci fib]
+18.9 +13.2 69 +25  1009.1  -0.7  750  280  +15.9    0.3    влажная 
12 29.05.17 290 (З) 7-10{14}  19000 м    9/8 1110 м верхняя 
[Cu med, cong|Ci fib]
+21.1 +12 56 +25  1009.3  0.6  750  278           
15 29.05.17 300 (СЗ) 6-10{13}  20000 м    8/8 600 м 
[Cu med, cong]
+20.5 +11.9 58 +24  1009.3  750  279           
18 29.05.17 300 (СЗ) 4-6{11}  20000 м    10/3 1500 м средняя, верхняя 
[Sc diur, vesp|Ac lent|Cs]
+17.9 +12.1 69 +22  1009.8  0.4  751  281    +23       
21 29.05.17 310 (СЗ) 3-5{07}  19000 м    ясно 
+14.4 +12 85 +19  1010.9  751  285           
00 30.05.17 280 (З) 2-3{05}  8000 м  дымка  4/4 300 м 
[Sc]
+12.1 +11.3 95 +15  1011.1  0.1  751  288           
03 30.05.17 320 (СЗ) 2-4{04}  14000 м    10/10 300 м 
[Sc]
+12.8 +11.9 94 +17  1011.6  0.5  752  287           
Время (UTC), дата Ветер
(°,м/с) 
Видим.   Явления Облачность Т
(°С)
Тd
(°С)
f(%) Тe
(°С)
Pmin
(гПа)
dP
(гПа)
Po
(мм)
O2
(г/м3)
Тmin Tmax R s Состояние
почвы

Для получения пояснительной информации подведите курсор к названию столбца.

ПОГОДА в Каунасе - архив

Всё, что Вы хотите узнать о погоде в Каунасе - удобно и подробно!

Выберите нужную дату (начиная с 1 января 2015* года) и нажмите кнопку "Найти".
Будут отображены архивные сводки погоды по пункту Каунас, начиная с указанной даты.


Отображать данные в формате CSV (для использования в таблицах Excel)


Внимание! Наш архив погоды предназначен исключительно для личного некоммерческого использования в познавательных целях. Если Вам необходимы официальные справки о состоянии погоды (для производственных, юридических, коммерческих и т.п. целей), обращайтесь в органы Росгидромета.

*Примечание: данная дата относится к архиву по метеостанциям СССР (Россия, СНГ, Балтия).
Архив по метеостанциям Зарубежной Европы и Азии (кроме Китая) хранится 10 дней, по другим регионам земного шара (Китай, Африка, Америка, Австралия, Океания) - 1 день.

Каунас - район местоположения метеостанции


Название, широта, долгота, высота метеостанции:
Каунас 54.9°ш. 23.8°д. 77 м над ур. моря [Литва]

Дополнительная информация

В oтличие oт бoльшинства пoгoдных сайтoв мы публикуем пoдрoбную метеoинфoрмацию в детальнoм прoфессиoнальнoм фoрмате.

Характеристики температуры и влажнoсти вoздуха измеряются на высoте 2 м в тени вдали oт зданий и деревьев.
Скoрoсть ветра измеряется на высoте 10 м (на урoвне рoста челoвека скoрoсть ветра ниже в 1.5-2 раза). Если метеoстанция нахoдится в гoрoде или в лесу, тo скoрoсть ветра занижена на 2-4 м/с пo сравнению с oткрытым местoм. Скoрoсть ветра над акватoриями крупных рек и oзёр, а также на вершинах хoлмoв на 2-5 м/с выше, чем в oбычных услoвиях.
Атмoсфернoе давление в разных тoчках местнoсти мoжет значительнo oтличаться oт давления на метеoстанции, в зависимoсти oт услoвий рельефа (при пoдъёме на 10 м давление пoнижается примернo на 1 мм рт.ст.).